Location: Aufkirchen
(47.9603°N, 11.3653°E)
Time: 10:16:46
(UTC+01:00)

deb Explorer IX - Pass Details

Date: 30 November 2020
Orbit: 536 x 1104 km, 38.8° (Epoch: 19 January)

Event Time Altitude Azimuth Distance (km) Brightness Sun altitude
Rises 17:05:36 0° 238° (WSW) 3,609 ? -6.9°
Reaches altitude 10° 17:08:42 10° 228° (SW) 2,567 ? -7.4°
Maximum altitude 17:13:49 29° 171° (S) 1,453 ? -8.2°
Drops below altitude 10° 17:18:18 10° 113° (ESE) 2,227 ? -8.9°
Enters shadow 17:19:38 - 106° (ESE) 2,656 ? -9.1°
